WA6MEM Weather Reports


time (UTC)temp
C
wind
direction
speed
KPH
gust
KPH
rain 1hr
cm
rain 24hr
cm
rain mn
cm
humidity
%
barometer
mb
20260831011545 22 218 4.8 0.0 0.00 0.00 0.00 80 1008.9
20260831011036 22 209 4.8 0.0 0.00 0.00 0.00 79 1008.8
20260831010537 23 217 4.8 0.0 0.00 0.00 0.00 78 1008.8
20260831010043 23 183 4.8 0.0 0.00 0.00 0.00 76 1008.8
20260831005536 23 209 4.8 0.0 0.00 0.00 0.00 75 1008.8
20260831005038 24 202 3.2 0.0 0.00 0.00 0.00 74 1008.8
20260831004536 24 191 3.2 0.0 0.00 0.00 0.00 74 1008.8
20260831004036 24 206 3.2 0.0 0.00 0.00 0.00 75 1008.7
20260831003535 24 257 3.2 0.0 0.00 0.00 0.00 74 1008.7
20260831003038 24 234 4.8 0.0 0.00 0.00 0.00 74 1008.7
20260831002534 24 205 4.8 0.0 0.00 0.00 0.00 73 1008.7
20260831002034 25 249 4.8 0.0 0.00 0.00 0.00 73 1008.7
20260831001537 25 219 4.8 0.0 0.00 0.00 0.00 73 1008.7
20260831001038 25 199 3.2 0.0 0.00 0.00 0.00 70 1008.7
20260831000534 25 238 4.8 0.0 0.00 0.00 0.00 70 1008.7
20260831000042 25 220 6.4 0.0 0.00 0.00 0.00 72 1008.7
20260830235534 25 176 6.4 0.0 0.00 0.00 0.00 70 1008.7
20260830235034 25 201 4.8 0.0 0.00 0.00 0.00 69 1008.7
20260830234537 25 191 4.8 0.0 0.00 0.00 0.00 69 1008.7
20260830234035 25 162 4.8 0.0 0.00 0.00 0.00 71 1008.7
20260830233533 25 194 4.8 0.0 0.00 0.00 0.00 76 1008.7
20260830233035 25 172 4.8 0.0 0.00 0.00 0.00 76 1008.7
20260830232533 25 188 6.4 0.0 0.00 0.00 0.00 75 1008.7
20260830232033 25 157 4.8 0.0 0.00 0.00 0.00 73 1008.7
20260830231532 26 137 4.8 0.0 0.00 0.00 0.00 71 1008.7
20260830231036 26 179 6.4 0.0 0.00 0.00 0.00 71 1008.8
20260830230532 26 158 6.4 0.0 0.00 0.00 0.00 69 1008.8
20260830230041 26 169 4.8 0.0 0.00 0.00 0.00 64 1008.8
20260830225532 26 173 4.8 0.0 0.00 0.00 0.00 67 1009.1
20260830225032 26 187 4.8 0.0 0.00 0.00 0.00 65 1009.1
20260830224532 26 191 4.8 0.0 0.00 0.00 0.00 64 1009.1
20260830224032 26 198 4.8 0.0 0.00 0.00 0.00 62 1009.2
20260830223532 26 186 4.8 0.0 0.00 0.00 0.00 65 1009.2
20260830223033 26 155 4.8 0.0 0.00 0.00 0.00 64 1009.2
20260830222532 26 170 4.8 0.0 0.00 0.00 0.00 65 1009.1
20260830222033 26 168 4.8 0.0 0.00 0.00 0.00 66 1009.1
20260830221534 26 167 4.8 0.0 0.00 0.00 0.00 64 1009.1
20260830221031 27 199 4.8 0.0 0.00 0.00 0.00 65 1009.3
20260830220531 27 162 4.8 0.0 0.00 0.00 0.00 63 1009.3
20260830220033 27 170 4.8 0.0 0.00 0.00 0.00 60 1009.3
20260830215530 27 217 3.2 0.0 0.00 0.00 0.00 64 1009.7
20260830215029 26 212 3.2 0.0 0.00 0.00 0.00 60 1009.7
20260830214528 26 209 4.8 0.0 0.00 0.00 0.00 69 1009.7
20260830214025 25 199 4.8 0.0 0.00 0.00 0.00 74 1010.0
20260830213524 25 171 4.8 0.0 0.00 0.00 0.00 75 1010.0
20260830213033 25 196 4.8 0.0 0.00 0.00 0.00 76 1010.0
20260830212523 25 176 4.8 0.0 0.00 0.00 0.00 76 1010.2
20260830212023 25 178 4.8 0.0 0.00 0.00 0.00 78 1010.2
20260830211523 25 157 4.8 0.0 0.00 0.00 0.00 78 1010.2
20260830211022 25 155 4.8 0.0 0.00 0.00 0.00 79 1010.3
20260830210520 25 147 4.8 0.0 0.00 0.00 0.00 80 1010.3
20260830210024 24 189 4.8 0.0 0.00 0.00 0.00 81 1010.3
20260830205520 24 167 6.4 0.0 0.00 0.00 0.00 81 1010.5
20260830205020 24 185 6.4 0.0 0.00 0.00 0.00 81 1010.5
20260830204520 24 238 4.8 0.0 0.00 0.00 0.00 82 1010.5
20260830204020 24 200 6.4 0.0 0.00 0.00 0.00 82 1010.4
20260830203520 24 149 6.4 0.0 0.00 0.00 0.00 82 1010.4
20260830203020 24 202 6.4 0.0 0.00 0.00 0.00 81 1010.4
20260830202519 25 209 4.8 0.0 0.00 0.00 0.00 81 1010.4
20260830202019 24 179 6.4 0.0 0.00 0.00 0.00 81 1010.4
20260830201519 25 193 4.8 0.0 0.00 0.00 0.00 81 1010.4
20260830201018 24 207 4.8 0.0 0.00 0.00 0.00 81 1010.4
20260830200518 24 160 4.8 0.0 0.00 0.00 0.00 83 1010.4
20260830200018 23 168 6.4 0.0 0.00 0.00 0.00 82 1010.4
20260830195518 24 176 6.4 0.0 0.00 0.00 0.00 81 1010.4
20260830195018 24 201 4.8 0.0 0.00 0.00 0.00 82 1010.4
20260830194521 24 175 4.8 0.0 0.00 0.00 0.00 81 1010.4
20260830194016 24 167 6.4 0.0 0.00 0.00 0.00 82 1010.4
20260830193515 24 191 4.8 0.0 0.00 0.00 0.00 81 1010.4
20260830193016 24 192 4.8 0.0 0.00 0.00 0.00 80 1010.4
20260830192515 24 158 4.8 0.0 0.00 0.00 0.00 81 1010.6
20260830192015 24 159 4.8 0.0 0.00 0.00 0.00 81 1010.6
20260830191519 24 157 4.8 0.0 0.00 0.00 0.00 81 1010.6
20260830191015 24 152 3.2 0.0 0.00 0.00 0.00 82 1010.7
20260830190515 24 144 3.2 0.0 0.00 0.00 0.00 82 1010.7
20260830190015 23 206 4.8 0.0 0.00 0.00 0.00 83 1010.7
20260830185518 23 191 4.8 0.0 0.00 0.00 0.00 82 1010.9
20260830185014 24 221 4.8 0.0 0.00 0.00 0.00 81 1010.9
20260830184520 24 196 3.2 0.0 0.00 0.00 0.00 81 1010.9
20260830184013 24 218 3.2 0.0 0.00 0.00 0.00 81 1010.8
20260830183517 24 215 4.8 0.0 0.00 0.00 0.00 82 1010.8
20260830183011 24 197 4.8 0.0 0.00 0.00 0.00 82 1010.8
20260830182510 23 198 3.2 0.0 0.00 0.00 0.00 83 1010.7
20260830182010 23 136 4.8 0.0 0.00 0.00 0.00 82 1010.7
20260830181509 23 153 4.8 0.0 0.00 0.00 0.00 83 1010.7
20260830181011 23 195 4.8 0.0 0.00 0.00 0.00 83 1010.7
20260830180508 23 128 4.8 0.0 0.00 0.00 0.00 83 1010.7
20260830180008 23 159 4.8 0.0 0.00 0.00 0.00 84 1010.7
20260830175508 23 152 4.8 0.0 0.00 0.00 0.00 84 1010.8
20260830175008 23 148 3.2 0.0 0.00 0.00 0.00 84 1010.8
20260830174507 23 178 4.8 0.0 0.00 0.00 0.00 84 1010.8
20260830174007 23 142 4.8 0.0 0.00 0.00 0.00 83 1010.7
20260830173506 23 182 3.2 0.0 0.00 0.00 0.00 83 1010.7
20260830173006 23 148 3.2 0.0 0.00 0.00 0.00 84 1010.7
20260830172506 23 165 3.2 0.0 0.00 0.00 0.00 84 1010.6
20260830172010 23 189 4.8 0.0 0.00 0.00 0.00 83 1010.6
20260830171505 23 196 4.8 0.0 0.00 0.00 0.00 84 1010.6
20260830171006 23 210 4.8 0.0 0.00 0.00 0.00 83 1010.3
20260830170504 23 161 3.2 0.0 0.00 0.00 0.00 82 1010.3
20260830170005 23 215 3.2 0.0 0.00 0.00 0.00 82 1010.3
20260830165504 23 173 3.2 0.0 0.00 0.00 0.00 82 1010.3
20260830165004 23 196 3.2 0.0 0.00 0.00 0.00 81 1010.3
20260830164505 23 198 1.6 0.0 0.00 0.00 0.00 81 1010.3
20260830164002 23 117 1.6 0.0 0.00 0.00 0.00 82 1010.3
20260830163601 23 162 1.6 0.0 0.00 0.00 0.00 83 1010.3
20260830163101 23 200 3.2 0.0 0.00 0.00 0.00 82 1010.3
20260830162601 23 169 3.2 0.0 0.00 0.00 0.00 81 1010.3
20260830162100 23 137 3.2 0.0 0.00 0.00 0.00 82 1010.3
20260830161559 23 201 3.2 0.0 0.00 0.00 0.00 81 1010.3
20260830161059 23 144 3.2 0.0 0.00 0.00 0.00 81 1010.4
20260830160558 23 193 3.2 0.0 0.00 0.00 0.00 79 1010.4
20260830160058 23 163 1.6 0.0 0.00 0.00 0.00 79 1010.4
20260830155557 22 171 1.6 0.0 0.00 0.00 0.00 78 1010.3
20260830155057 22 204 1.6 0.0 0.00 0.00 0.00 79 1010.3
20260830154556 22 171 1.6 0.0 0.00 0.00 0.00 79 1010.3
20260830154055 22 148 1.6 0.0 0.00 0.00 0.00 79 1010.4
20260830153553 22 131 1.6 0.0 0.00 0.00 0.00 78 1010.4
20260830153054 22 120 1.6 0.0 0.00 0.00 0.00 80 1010.4
20260830152551 21 136 1.6 0.0 0.00 0.00 0.00 81 1010.4
20260830152049 21 167 1.6 0.0 0.00 0.00 0.00 83 1010.4
20260830151554 21 175 1.6 0.0 0.00 0.00 0.00 83 1010.4
20260830151048 21 144 1.6 0.0 0.00 0.00 0.00 84 1010.4
20260830150546 21 134 1.6 0.0 0.00 0.00 0.00 84 1010.4
20260830150046 21 205 1.6 0.0 0.00 0.00 0.00 83 1010.4
20260830145547 20 175 1.6 0.0 0.00 0.00 0.00 84 1010.4
20260830145043 20 165 1.6 0.0 0.00 0.00 0.00 83 1010.4
20260830144547 20 177 1.6 0.0 0.00 0.00 0.00 83 1010.4
20260830144042 20 167 1.6 0.0 0.00 0.00 0.00 83 1010.3
20260830143542 20 200 1.6 0.0 0.00 0.00 0.00 83 1010.3
20260830143043 20 167 1.6 0.0 0.00 0.00 0.00 83 1010.3
20260830142542 20 186 3.2 0.0 0.00 0.00 0.00 83 1010.2
20260830142044 19 198 3.2 0.0 0.00 0.00 0.00 84 1010.2
20260830141543 19 193 1.6 0.0 0.00 0.00 0.00 84 1010.2
20260830141041 19 196 1.6 0.0 0.00 0.00 0.00 83 1010.1
20260830140540 18 181 1.6 0.0 0.00 0.00 0.00 83 1010.1
20260830140040 18 181 1.6 0.0 0.00 0.00 0.00 83 1010.1
20260830135543 18 188 1.6 0.0 0.00 0.00 0.00 83 1010.0
20260830135040 18 188 1.6 0.0 0.00 0.00 0.00 83 1010.0
20260830134543 18 211 1.6 0.0 0.00 0.00 0.00 83 1010.0
20260830134040 18 172 1.6 0.0 0.00 0.00 0.00 84 1009.9
20260830133539 18 215 1.6 0.0 0.00 0.00 0.00 85 1009.9
20260830133038 18 120 0.0 0.0 0.00 0.00 0.00 86 1009.9
20260830132538 18 120 0.0 0.0 0.00 0.00 0.00 87 1009.5
20260830132042 18 120 0.0 0.0 0.00 0.00 0.00 87 1009.5
20260830131545 18 120 0.0 0.0 0.00 0.00 0.00 87 1009.5
20260830131038 18 120 0.0 0.0 0.00 0.00 0.00 88 1009.3
20260830130541 18 120 0.0 0.0 0.00 0.00 0.00 88 1009.3
20260830130051 18 119 0.0 0.0 0.00 0.00 0.00 88 1009.3
20260830125539 18 120 1.6 0.0 0.00 0.00 0.00 89 1009.3
20260830125039 18 76 1.6 0.0 0.00 0.00 0.00 89 1009.3
20260830124537 18 76 0.0 0.0 0.00 0.00 0.00 90 1009.3
20260830124039 18 76 1.6 0.0 0.00 0.00 0.00 90 1009.3
20260830123537 18 76 3.2 0.0 0.00 0.00 0.00 91 1009.3
20260830123038 18 56 3.2 0.0 0.00 0.00 0.00 91 1009.3
20260830122536 18 56 1.6 0.0 0.00 0.00 0.00 91 1009.2
20260830122035 18 30 1.6 0.0 0.00 0.00 0.00 91 1009.2
20260830121535 18 35 1.6 0.0 0.00 0.00 0.00 90 1009.2
20260830121042 18 26 1.6 0.0 0.00 0.00 0.00 90 1009.0
20260830120535 18 48 1.6 0.0 0.00 0.00 0.00 90 1009.0
20260830120035 18 48 1.6 0.0 0.00 0.00 0.00 90 1009.0
20260830115535 18 59 3.2 0.0 0.00 0.00 0.00 90 1008.9
20260830115035 18 26 3.2 0.0 0.00 0.00 0.00 90 1008.9
20260830114536 18 32 1.6 0.0 0.00 0.00 0.00 90 1008.9
20260830114035 18 22 1.6 0.0 0.00 0.00 0.00 89 1008.8
20260830113534 18 35 3.2 0.0 0.00 0.00 0.00 89 1008.8
20260830113034 18 19 3.2 0.0 0.00 0.00 0.00 89 1008.8
20260830112533 18 19 1.6 0.0 0.00 0.00 0.00 88 1008.8
20260830112034 18 66 1.6 0.0 0.00 0.00 0.00 87 1008.8
20260830111534 18 66 1.6 0.0 0.00 0.00 0.00 87 1008.8
20260830111034 18 66 1.6 0.0 0.00 0.00 0.00 87 1008.6
20260830110534 18 66 1.6 0.0 0.00 0.00 0.00 88 1008.6
20260830110034 18 63 3.2 0.0 0.00 0.00 0.00 86 1008.6
20260830105533 18 63 3.2 0.0 0.00 0.00 0.00 87 1008.7
20260830105034 18 51 1.6 0.0 0.00 0.00 0.00 86 1008.7
20260830104533 18 39 3.2 0.0 0.00 0.00 0.00 87 1008.7
20260830104033 18 46 1.6 0.0 0.00 0.00 0.00 87 1008.6
20260830103535 18 44 1.6 0.0 0.00 0.00 0.00 87 1008.6
20260830103032 18 44 3.2 0.0 0.00 0.00 0.00 88 1008.6
20260830102534 18 44 1.6 0.0 0.00 0.00 0.00 90 1008.7
20260830102031 18 44 3.2 0.0 0.00 0.00 0.00 89 1008.7
20260830101530 18 48 3.2 0.0 0.00 0.00 0.00 90 1008.7
20260830101030 18 26 1.6 0.0 0.00 0.00 0.00 91 1008.6
20260830100529 18 219 0.0 0.0 0.00 0.00 0.00 91 1008.6
20260830100035 18 218 0.0 0.0 0.00 0.00 0.00 90 1008.6
20260830095529 18 219 1.6 0.0 0.00 0.00 0.00 90 1008.7
20260830095027 18 219 0.0 0.0 0.00 0.00 0.00 90 1008.7
20260830094528 18 218 0.0 0.0 0.00 0.00 0.00 89 1008.7
20260830094027 19 219 0.0 0.0 0.00 0.00 0.00 89 1008.6
20260830093527 19 219 0.0 0.0 0.00 0.00 0.00 88 1008.6
20260830093027 19 219 0.0 0.0 0.00 0.00 0.00 88 1008.6
20260830092525 19 218 0.0 0.0 0.00 0.00 0.00 87 1008.7
20260830092026 19 219 0.0 0.0 0.00 0.00 0.00 86 1008.7
20260830091534 19 219 1.6 0.0 0.00 0.00 0.00 86 1008.7
20260830091023 19 219 1.6 0.0 0.00 0.00 0.00 83 1008.7
20260830090523 19 155 0.0 0.0 0.00 0.00 0.00 77 1008.7
20260830090024 19 155 0.0 0.0 0.00 0.00 0.00 75 1008.7
20260830085525 19 155 1.6 0.0 0.00 0.00 0.00 74 1008.7
20260830085022 19 212 0.0 0.0 0.00 0.00 0.00 73 1008.7
20260830084537 19 212 0.0 0.0 0.00 0.00 0.00 72 1008.7
20260830084020 20 212 0.0 0.0 0.00 0.00 0.00 72 1008.7
20260830083523 20 212 0.0 0.0 0.00 0.00 0.00 71 1008.7
20260830083019 20 212 0.0 0.0 0.00 0.00 0.00 71 1008.7
20260830082518 20 212 0.0 0.0 0.00 0.00 0.00 71 1009.0
20260830082018 20 212 0.0 0.0 0.00 0.00 0.00 71 1009.0
20260830081518 20 212 0.0 0.0 0.00 0.00 0.00 71 1009.0
20260830081021 20 212 1.6 0.0 0.00 0.00 0.00 71 1008.7
20260830080520 20 212 1.6 0.0 0.00 0.00 0.00 71 1008.7
20260830080019 20 284 0.0 0.0 0.00 0.00 0.00 73 1008.7
20260830075517 20 180 0.0 0.0 0.00 0.00 0.00 75 1008.9
20260830075019 20 180 1.6 0.0 0.00 0.00 0.00 74 1008.9
20260830074517 20 209 1.6 0.0 0.00 0.00 0.00 74 1008.9
20260830074020 20 206 3.2 0.0 0.00 0.00 0.00 74 1008.7
20260830073518 20 262 1.6 0.0 0.00 0.00 0.00 75 1008.7
20260830073013 20 272 1.6 0.0 0.00 0.00 0.00 79 1008.7
20260830072513 20 185 1.6 0.0 0.00 0.00 0.00 80 1009.0
20260830072013 20 185 1.6 0.0 0.00 0.00 0.00 81 1009.0
20260830071513 20 186 1.6 0.0 0.00 0.00 0.00 80 1009.0
20260830071011 20 173 1.6 0.0 0.00 0.00 0.00 80 1008.8
20260830070511 20 173 1.6 0.0 0.00 0.00 0.00 80 1008.8
20260830070012 20 159 1.6 0.0 0.00 0.00 0.00 81 1008.8
20260830065514 20 190 1.6 0.0 0.00 0.00 0.00 81 1008.7
20260830065010 20 196 1.6 0.0 0.00 0.00 0.00 81 1008.7
20260830064511 20 187 1.6 0.0 0.00 0.00 0.00 82 1008.7
20260830064010 20 205 1.6 0.0 0.00 0.00 0.00 82 1008.6
20260830063510 20 140 1.6 0.0 0.00 0.00 0.00 83 1008.6
20260830063010 20 163 1.6 0.0 0.00 0.00 0.00 83 1008.6
20260830062509 20 180 3.2 0.0 0.00 0.00 0.00 83 1008.5
20260830062012 20 181 1.6 0.0 0.00 0.00 0.00 83 1008.5
20260830061508 20 154 1.6 0.0 0.00 0.00 0.00 83 1008.5
20260830061007 20 168 3.2 0.0 0.00 0.00 0.00 82 1008.6
20260830060507 20 161 3.2 0.0 0.00 0.00 0.00 81 1008.6
20260830060007 20 174 3.2 0.0 0.00 0.00 0.00 79 1008.6
20260830055507 21 181 3.2 0.0 0.00 0.00 0.00 77 1008.5
20260830055006 21 159 4.8 0.0 0.00 0.00 0.00 75 1008.5
20260830054507 21 158 3.2 0.0 0.00 0.00 0.00 75 1008.5
20260830054006 21 202 3.2 0.0 0.00 0.00 0.00 74 1008.5
20260830053506 21 173 3.2 0.0 0.00 0.00 0.00 73 1008.5
20260830053007 21 211 3.2 0.0 0.00 0.00 0.00 72 1008.5
20260830052505 21 219 3.2 0.0 0.00 0.00 0.00 71 1008.5
20260830052005 21 202 4.8 0.0 0.00 0.00 0.00 70 1008.5
20260830051505 21 209 6.4 0.0 0.00 0.00 0.00 69 1008.5
20260830051005 21 168 6.4 0.0 0.00 0.00 0.00 68 1008.6
20260830050505 22 274 8.0 0.0 0.00 0.00 0.00 66 1008.6
20260830050006 21 267 9.7 0.0 0.00 0.00 0.00 66 1008.6
20260830045505 21 256 9.7 0.0 0.00 0.00 0.00 66 1008.7
20260830045004 21 290 8.0 0.0 0.00 0.00 0.00 67 1008.7
20260830044505 21 289 6.4 0.0 0.00 0.00 0.00 69 1008.7
20260830044007 21 301 6.4 0.0 0.00 0.00 0.00 70 1008.7
20260830043504 21 288 6.4 0.0 0.00 0.00 0.00 70 1008.7
20260830043003 21 273 4.8 0.0 0.00 0.00 0.00 70 1008.7
20260830042503 21 304 4.8 0.0 0.00 0.00 0.00 70 1008.7
20260830042003 21 321 3.2 0.0 0.00 0.00 0.00 69 1008.7
20260830041502 21 322 3.2 0.0 0.00 0.00 0.00 69 1008.7
20260830041005 21 284 3.2 0.0 0.00 0.00 0.00 68 1008.7
20260830040502 21 19 3.2 0.0 0.00 0.00 0.00 68 1008.7
20260830040002 21 322 3.2 0.0 0.00 0.00 0.00 68 1008.7
20260830035502 21 253 3.2 0.0 0.00 0.00 0.00 68 1008.5
20260830035002 21 169 3.2 0.0 0.00 0.00 0.00 69 1008.5
20260830034502 21 255 4.8 0.0 0.00 0.00 0.00 70 1008.5
20260830034002 21 280 4.8 0.0 0.00 0.00 0.00 70 1008.3
20260830033500 21 200 4.8 0.0 0.00 0.00 0.00 70 1008.3
20260830033102 21 188 4.8 0.0 0.00 0.00 0.00 72 1008.3
20260830032604 21 193 4.8 0.0 0.00 0.00 0.00 73 1008.0
20260830032100 21 197 4.8 0.0 0.00 0.00 0.00 73 1008.0
20260830031600 21 175 4.8 0.0 0.00 0.00 0.00 73 1008.0
20260830031102 21 154 4.8 0.0 0.00 0.00 0.00 72 1008.1
20260830030600 21 187 4.8 0.0 0.00 0.00 0.00 73 1008.1
20260830030100 21 279 3.2 0.0 0.00 0.00 0.00 75 1008.1
20260830025600 22 228 3.2 0.0 0.00 0.00 0.00 76 1008.0
20260830025059 22 178 4.8 0.0 0.00 0.00 0.00 76 1008.0
20260830024600 22 212 3.2 0.0 0.00 0.00 0.00 75 1008.0
20260830024102 22 171 4.8 0.0 0.00 0.00 0.00 74 1008.1
20260830023559 22 180 4.8 0.0 0.00 0.00 0.00 72 1008.1
20260830023114 22 257 4.8 0.0 0.00 0.00 0.00 70 1008.1
20260830022558 22 211 4.8 0.0 0.00 0.00 0.00 70 1008.1
20260830022058 23 146 4.8 0.0 0.00 0.00 0.00 69 1008.1
20260830021558 23 238 4.8 0.0 0.00 0.00 0.00 68 1008.1
20260830021101 23 165 3.2 0.0 0.00 0.00 0.00 69 1008.2
20260830020600 23 165 3.2 0.0 0.00 0.00 0.00 70 1008.2
20260830020058 23 178 3.2 0.0 0.00 0.00 0.00 70 1008.2
20260830015557 23 309 3.2 0.0 0.00 0.00 0.00 70 1007.9
20260830015057 23 288 4.8 0.0 0.00 0.00 0.00 70 1007.9
20260830014557 23 209 4.8 0.0 0.00 0.00 0.00 71 1007.9
20260830014057 23 152 4.8 0.0 0.00 0.00 0.00 71 1007.9
20260830013557 23 169 4.8 0.0 0.00 0.00 0.00 71 1007.9
20260830013057 23 186 6.4 0.0 0.00 0.00 0.00 71 1007.9
20260830012602 23 213 4.8 0.0 0.00 0.00 0.00 73 1007.8
20260830012056 23 198 4.8 0.0 0.00 0.00 0.00 73 1007.8